Printer-friendly version
Follow the MPC on Twitter Follow the MPC on Facebook The MPC blog
Minor Planet Center

MPEC 2002-V33 : COMET P/2002 O5 (NEAT)

The following Minor Planet Electronic Circular may be linked-to from your own Web pages, but must not otherwise be redistributed electronically.

A form allowing access to any MPEC is at the bottom of this page.


Read MPEC 2002-V32 Read MPEC 2002-V34


M.P.E.C. 2002-V33                                Issued 2002 Nov. 8, 20:09 UT

     The Minor Planet Electronic Circulars contain information on unusual
         minor planets and routine data on comets.  They are published
   on behalf of Commission 20 of the International Astronomical Union by the
          Minor Planet Center, Smithsonian Astrophysical Observatory,
                          Cambridge, MA 02138, U.S.A.

             Prepared using the Tamkin Foundation Computer Network

                              MPC@CFA.HARVARD.EDU
          URL http://cfa-www.harvard.edu/iau/mpc.html  ISSN 1523-6714

                            COMET P/2002 O5 (NEAT)

Observations:
    PK02O050  C2002 11 04.78698 21 28 25.29 +20 56 51.2          18.9 T      J95
    PK02O050  C2002 11 04.79167 21 28 25.98 +20 56 51.2          19.9 T      J95
    PK02O050  C2002 11 07.83843 21 36 33.21 +20 50 00.0          19.5 N      J95
    PK02O050  C2002 11 07.84459 21 36 34.09 +20 49 59.0                      J95

Observer details:
J95 Great Shefford.  Observer P. Birtwhistle.  0.3-m Schmidt-Cassegrain + CCD.

Orbital elements:
    P/2002 O5 (NEAT)
Epoch 2002 July 25.0 TT = JDT 2452480.5
T 2002 Aug. 3.10160 TT                                  MPC
q   1.1742482            (2000.0)            P               Q
n   0.19783382     Peri.   15.30612     +0.44580397     +0.82776160
a   2.9169950      Node   282.20920     -0.85351719     +0.27838940
e   0.5974460      Incl.   20.40011     -0.26975402     +0.48714482
P   4.98
Residuals in seconds of arc
020730 608  0.9+  0.1+    020801 159  0.8+  0.0     020808 170  0.6-  0.1-
020730 608  0.7+  0.3+    020801 159  0.5+  0.5-    020808 170  1.1+  0.2+
020730 608  0.6+  0.1+    020801 J95  0.7+  1.0+    020810 848 (2.3+  2.0-)
020730 198 (3.6+  4.0-)   020801 J95  0.3+  0.6+    020810 848  0.1-  0.5-
020730 198  0.7+  1.3-    020801 J95  1.2+  0.6+    020810 848  0.3-  1.3+
020730 198  0.5-  0.0     020802 649  0.6-  0.7-    020810 349  0.4+  0.6+
020730 952  0.6-  0.8+    020802 649  1.3-  0.1-    020810 349  0.6-  0.4+
020730 952  1.6-  0.5+    020802 649  1.9-  0.2-    020810 349  0.5+  0.6+
020730 952  1.1-  0.4-    020802 428  0.4-  0.2+    020810 349  0.0   0.3-
020730 952  1.7-  0.0     020802 428  0.4-  0.0     020811 213  0.3-  0.3+
020731 704  0.5+  0.6-    020802 428  0.3-  0.2-    020811 213  0.2-  1.0+
020731 704  0.5+  0.2-    020802 599  0.3-  0.4+    020811 213  1.2-  0.2+
020731 704  0.4-  0.5-    020802 204 (8.2+  2.3-)   020812 170  0.3-  0.8+
020731 704  0.3+  0.5-    020802 599  1.1-  0.6+    020812 170  0.2-  1.2+
020731 704  0.7+  0.2-    020802 599  0.4-  0.5+    020812 170  1.3+  1.5+
020731 704 (3.3+  0.8-)   020802 599  0.2-  0.4+    020812 213  0.0   0.3-
020731 704  0.0   0.2-    020802 941  0.4+  0.4-    020812 213 (2.2+  0.3+)
020731 704  0.1+  0.4+    020802 941  0.7-  0.6+    020812 J95  0.1+  0.7+
020731 704  0.2+  0.6-    020802 941  1.1+  1.0-    020812 J95  0.9+  0.1+
020731 704  0.3+  0.2+    020802 204  1.1-  0.1+    020812 J95  0.7+  0.1-
020731 704  0.3-  0.3-    020802 844  1.4+  0.5+    020812 J95  0.2+  0.2+
020731 670  0.3+  0.2+    020802 118 (2.9+  3.7+)   020813 613 (6.0+  2.9+)
020731 704  0.3+  0.8-    020802 844  0.8+  0.6-    020813 613  1.8-  0.4+
020731 704  0.6+  0.1+    020802 118 (1.9+  2.3+)   020814 613  0.8-  1.8-
020731 704  0.7+  0.6-    020802 844  1.4+  1.3+    020814 215  1.0+  0.6-
020731 649  0.4-  0.4+    020802 118 (0.5+  2.6+)   020814 215  1.0+  0.1+
020731 649  0.1-  0.6+    020802 844 (3.3-  0.1+)   020814 613 (0.1-  3.0-)
020731 649  0.4-  0.4+    020803 644  1.1+  0.1+    020814 215  0.3+  0.1+
020731 649  0.3-  0.4+    020803 644  0.9+  0.1+    020814 613 (3.6-  2.9-)
020731 704  0.1+  0.6-    020803 644  1.5+  0.4-    020814 J95  0.4+  0.0
020731 670  0.3+  0.8-    020803 300  0.1-  1.0-    020814 J95  1.0+  0.1-
020731 670 (3.3+  0.3+)   020803 300  0.3-  0.3-    020814 J95  0.1-  0.1+
020731 474  0.2-  0.4+    020803 300  0.5+  0.2-    020817 704  0.8+  0.3-
020731 474  0.0   0.5+    020803 342  1.4+  1.7+    020817 704  0.0   0.3+
020731 474  0.1-  0.5+    020803 342 (3.5-  0.0 )   020817 704  0.2+  0.0
020731 474  0.1-  0.5+    020803 342 (1.9-  2.1-)   020817 704  0.5+  0.3-
020731 474  0.3-  0.5+    020803 046  0.1-  0.3+    020817 170  0.2-  1.0-
020731 413  0.8-  0.6+    020803 046  0.1-  0.5+    020819 170  0.4+  0.5-
020731 413  0.9-  0.7+    020803 118  0.2-  1.1-    020819 170  0.3+  0.2-
020731 413  1.0-  0.7+    020803 046  0.2-  0.0     020819 170  0.1+  0.9-
020731 413  0.9-  0.7+    020803 046  0.2-  0.1+    020819 170  1.5-  1.8-
020731 413  0.6-  0.3+    020803 046  0.7-  0.6+    020819 170  0.4-  1.9-
020731 620  1.8-  0.7+    020803 046  0.7-  0.7+    020820 213  1.9+  1.0-
020731 620  1.3+  0.2-    020803 118  0.0   0.8-    020820 213 (0.6+  2.3+)
020731 620  0.3+  0.3+    020803 046  0.1+  0.2+    020820 213  0.3+  0.2-
020731 620  0.1+  1.2+    020803 046  0.0   0.2+    020826 118  0.6+  1.0-
020731 859  1.5+  1.3-    020803 118  0.0   1.1-    020826 118  0.1+  1.6-
020731 859  0.1+  0.8-    020803 213  0.5-  1.4-    020826 118  0.9+  1.5-
020801 734  1.5+  0.6-    020803 213  1.4-  1.5-    020827 670  0.2+  1.1+
020801 734  1.1+  1.0-    020803 213  0.8-  1.3-    020827 670  0.5-  0.7+
020801 428  0.5-  0.5+    020803 213  0.4-  1.6-    020828 J95  1.0-  0.9+
020801 428  0.3+  0.0     020803 213  1.0-  1.0-    020828 J95  0.6+  0.6+
020801 428  1.0-  0.6-    020803 938  0.2-  0.1+    020828 J95  1.1-  1.1+
020801 300  0.5+  0.5-    020803 938  0.9-  0.2+    020828 J95  0.2-  1.2+
020801 300  0.6-  0.0     020803 938  0.6-  0.0     020829 246  0.7-  1.0+
020801 300  0.1+  1.7-    020803 938  0.3-  0.0     020829 246  0.1-  1.1-
020801 300  0.6+  0.0     020803 938  0.0   0.2+    020829 246  0.1+  0.6-
020801 300  1.5+  1.4-    020804 938  0.3-  0.3+    020831 J95  0.8+  1.5+
020801 300  0.4-  0.0     020804 938  0.4-  0.7+    020831 J95  0.4-  1.2+
020801 300  0.1-  0.5-    020804 938  0.2-  0.1+    020831 J95  0.0   0.8+
020801 300  0.1+  0.2-    020804 938  0.1-  0.5+    020831 J95  0.7-  0.1-
020801 300  0.1+  0.2+    020805 360  0.4-  0.3+    020901 848  0.9+  1.3-
020801 300  0.1+  0.5-    020805 360  0.8-  0.1+    020901 848  0.7+  0.5-
020801 372  0.3+  0.4+    020805 300  0.3+  0.3-    020901 848  0.4+  0.2-
020801 599  0.9-  0.1+    020805 300  0.7+  0.7-    020901 170  0.2+  0.9-
020801 599  0.0   0.4+    020805 300  0.8+  1.5-    020901 170  0.1+  1.6-
020801 599  0.1+  0.8+    020805 300  0.8+  0.2-    020901 170 (3.2+  0.3-)
020801 599  0.6+  0.5+    020805 300  0.3-  0.2+    020902 213  1.2+  1.2-
020801 159  0.1-  0.2+    020805 118  0.0   0.7+    020902 213  0.0   0.7-
020801 159  0.3+  0.2+    020805 118  0.7-  0.6+    020902 213  0.7+  0.7-
020801 159  0.2+  0.2+    020805 118  0.4+  0.7+    020907 246  0.1+  0.1-
020801 159  0.4+  0.1+    020807 670  0.0   0.4+    020907 246  0.2+  0.3-
020801 159  0.5-  0.1+    020807 670  0.5+  0.8+    020907 246  0.5+  0.4-
020801 159  0.2-  0.5+    020807 670  0.2-  0.8+    020907 246  0.1+  0.3-
020801 159  0.1-  0.1+    020807 170  1.4+  0.3+    020908 J95  1.9-  0.9+
020801 159  0.1+  0.3+    020807 170 (2.3-  0.5-)   020908 J95  1.5-  0.0
020801 159  1.3+  0.0     020807 170  1.2-  0.7+    020908 J95  0.7-  0.2+
020801 213  0.7-  1.0+    020807 170  1.6-  0.2-    020908 J95  1.1-  0.7+
020801 213  0.1+  0.4+    020807 170  0.8+  0.3-    020909 118  1.3+  0.5+
020801 213  0.9-  0.4-    020807 170  1.0-  0.4-    020909 118  1.0+  0.2-
020801 159  0.1+  0.4+    020807 213  0.1+  0.3+    020912 J95  1.6-  0.5-
020801 159  0.7+  0.4+    020807 170  0.7+  0.9-    020912 J95  1.8+  0.7-
020801 159  0.3+  0.4+    020807 213  0.7+  0.4-    020923 J95  0.9+  0.5+
020801 170 (0.9-  3.1-)   020807 213  0.7+  0.3-    021003 J95  1.9-  1.5+
020801 159  0.1+  0.0     020807 213  0.1+  0.0     021003 J95  0.8-  0.7+
020801 170  1.6+  0.4-    020808 213  1.0-  0.6-    021104 J95  0.8+  0.1-
020801 159  0.2+  0.2+    020808 213  0.1-  0.9+    021104 J95  0.0   0.5+
020801 159  1.1-  0.6+    020808 213 (1.8-  3.4+)   021107 J95  0.9+  0.9+
020801 170  0.1-  0.4-    020808 170  0.5-  0.4+    021107 J95  0.3-  0.8+
020801 159  0.2-  0.2-    020808 170  0.4+  0.4+
020801 170  1.5-  0.6-    020808 170  1.2-  1.0+

Brian G. Marsden             (C) Copyright 2002 MPC           M.P.E.C. 2002-V33

Read MPEC 2002-V32 Read MPEC 2002-V34


MPEC number:

Enter an MPEC number in one of the following forms:

  • 1997-B01 (the full form)
  • J97B01 (the packed version of the full form)
  • B01 (the abbreviated form)

Valid HTML 4.01!